Weather History for Jordan, MT

Change the Weather History Date:

Saturday, May 18, 2013

  Actual Average Record
Temperature  
Mean Temperature 60 °F 53 °F  
Max Temperature 65 °F 67 °F 100 °F (1948)
Min Temperature 54 °F 39 °F 28 °F (1997)
Degree Days  
Heating Degree Days 5 12  
Month to date heating degree days 195 260  
Since 1 July heating degree days 7517 7994  
Cooling Degree Days 0 0  
Month to date cooling degree days 10 0  
Year to date cooling degree days 10 0  
Growing Degree Days 10 (Base 50)    
Moisture  
Dew Point 54 °F    
Average Humidity 80    
Maximum Humidity 93    
Minimum Humidity 67    
Precipitation  
Precipitation 0.09 in 0.08 in 1.03 in (1978)
Month to date precipitation 0.15 1.04  
Year to date precipitation 2.99 3.12  
Snow  
Snow 0.00 in - - ()
Month to date snowfall 0.0  
Since 1 July snowfall 0.0  
Snow Depth 0.00 in    
Sea Level Pressure  
Sea Level Pressure 29.86 in    
Wind  
Wind Speed 8 mph (NNW)    
Max Wind Speed 17 mph    
Max Gust Speed 21 mph    
T = Trace of Precipitation, MM = Missing Value Source: NWS Daily Summary

Daily Weather History Graph

Daily Weather History Graph

Search for Another Location

Airport:

Trip Planner

Search our weather history database for the weather conditions in past years. The results will help you decide how hot, cold, wet, or windy it might be!

Date:

Astronomy

May. 18, 2013 Rise Set
Actual Time 5:27 AM MDT 8:41 PM MDT
Civil Twilight 4:50 AM MDT 9:18 PM MDT
Nautical Twilight 4:02 AM MDT 10:07 PM MDT
Astronomical Twilight 3:02 AM MDT 11:08 PM MDT
Moon 1:20 PM MDT (5/18) 1:50 AM MDT (5/18)
Length of Visible Light 16h 28m
Length of Day
15h 14m
First Quarter, 56% of the Moon is Illuminated
May 18
First Quarter
May 24
Full
May 31
Last Quarter
Jun 8
New
Jun 16
First Quarter

Hourly Weather History & Observations

Time (MDT) Temp. Dew Point Humidity Pressure Visibility Wind Dir Wind Speed Gust Speed Precip Events Conditions
12:48 AM 55.9 °F 54.0 °F 93% 29.86 in - West 8.1 mph - 0.01 in   Unknown
1:48 AM 55.0 °F 53.1 °F 93% 29.83 in - NNW 11.5 mph - 0.02 in   Unknown
2:48 AM 55.0 °F 53.1 °F 93% 29.83 in - North 11.5 mph - N/A   Unknown
3:48 AM 55.0 °F 53.1 °F 93% 29.83 in - Calm Calm - N/A   Unknown
4:48 AM 55.0 °F 53.1 °F 93% 29.84 in - Variable 3.5 mph - N/A   Unknown
5:48 AM 55.0 °F 53.1 °F 93% 29.84 in - North 8.1 mph - N/A   Unknown
6:48 AM 55.0 °F 53.1 °F 93% 29.84 in - North 9.2 mph - N/A   Unknown
7:48 AM 55.9 °F 53.1 °F 90% 29.86 in - WNW 4.6 mph - N/A   Unknown
8:48 AM 55.0 °F 53.1 °F 93% 29.88 in - WNW 4.6 mph - 0.01 in   Unknown
9:48 AM 55.0 °F 53.1 °F 93% 29.89 in - NW 9.2 mph - 0.05 in   Unknown
10:48 AM 55.9 °F 54.0 °F 93% 29.88 in - NNW 6.9 mph - 0.01 in   Unknown
11:48 AM 55.9 °F 54.0 °F 93% 29.88 in - NNW 5.8 mph - N/A   Unknown
12:48 PM 57.0 °F 55.0 °F 93% 29.87 in - NW 6.9 mph - 0.02 in   Unknown
1:48 PM 60.1 °F 55.0 °F 83% 29.86 in - NNW 4.6 mph - N/A   Unknown
2:48 PM 61.0 °F 55.9 °F 83% 29.85 in - WNW 5.8 mph - N/A   Unknown
3:48 PM 63.0 °F 54.0 °F 72% 29.84 in - NNW 4.6 mph - N/A   Unknown
4:48 PM 64.0 °F 53.1 °F 67% 29.83 in - NNW 9.2 mph - N/A   Unknown
5:48 PM 64.0 °F 53.1 °F 67% 29.84 in - NNW 10.4 mph - N/A   Unknown
6:48 PM 62.1 °F 52.0 °F 70% 29.85 in - NNW 12.7 mph - N/A   Unknown
7:48 PM 59.0 °F 54.0 °F 83% 29.86 in - North 11.5 mph - N/A   Unknown
8:48 PM 57.9 °F 54.0 °F 87% 29.86 in - North 13.8 mph - N/A   Unknown
9:48 PM 57.0 °F 53.1 °F 87% 29.88 in - North 11.5 mph - N/A   Unknown
10:48 PM 55.9 °F 53.1 °F 90% 29.88 in - North 11.5 mph - N/A   Unknown
11:48 PM 55.9 °F 52.0 °F 87% 29.87 in - North 12.7 mph - N/A   Unknown